VSP204 SBLO-SBSP

Flight info

Callsign VSP204
Flight time N/A
Altitude 35000
Route AKTIT DCT IMTBI DCT UTLOT
Aircraft B738/M-SDE2E3FGHIRWXY/LB1

Departure

Time 2026-04-23 00:20
Airport Governor José Richa Airport (SBLO)

Arrival

Time N/A
Airport Congonhas–Deputado Freitas Nobre Airport (SBSP)
Time Latitude Longitude Altitude Speed Heading
2026-04-23 00:08 -23.32962 -51.13689 1869 ft 0 kts 20°
2026-04-23 00:09 -23.32964 -51.13690 1869 ft 1 kts 20°
2026-04-23 00:09 -23.32978 -51.13695 1869 ft 1 kts 20°
2026-04-23 00:09 -23.32984 -51.13698 1869 ft 1 kts 355°
2026-04-23 00:10 -23.32994 -51.13692 1869 ft 1 kts 298°
2026-04-23 00:10 -23.32995 -51.13686 1869 ft 1 kts 286°
2026-04-23 00:10 -23.32996 -51.13683 1869 ft 0 kts 289°
2026-04-23 00:13 -23.32996 -51.13684 1869 ft 0 kts 289°
2026-04-23 00:13 -23.32994 -51.13691 1869 ft 1 kts 289°
2026-04-23 00:13 -23.32991 -51.13699 1869 ft 1 kts 290°
2026-04-23 00:13 -23.32990 -51.13702 1869 ft 2 kts 290°
2026-04-23 00:14 -23.32985 -51.13717 1869 ft 1 kts 292°
2026-04-23 00:14 -23.32981 -51.13729 1869 ft 1 kts 292°
2026-04-23 00:14 -23.32977 -51.13739 1869 ft 1 kts 292°
2026-04-23 00:14 -23.32975 -51.13745 1869 ft 0 kts 292°
2026-04-23 00:15 -23.32972 -51.13752 1869 ft 2 kts 292°
2026-04-23 00:15 -23.32968 -51.13770 1869 ft 2 kts 266°
2026-04-23 00:15 -23.32977 -51.13792 1869 ft 4 kts 244°
2026-04-23 00:15 -23.32982 -51.13818 1869 ft 2 kts 272°
2026-04-23 00:16 -23.32976 -51.13857 1870 ft 9 kts 283°
2026-04-23 00:16 -23.32961 -51.13905 1870 ft 3 kts 280°
2026-04-23 00:16 -23.32961 -51.13912 1870 ft 0 kts 266°
2026-04-23 00:17 -23.32961 -51.13914 1870 ft 1 kts 266°
2026-04-23 00:17 -23.32965 -51.13926 1870 ft 2 kts 240°
2026-04-23 00:17 -23.32994 -51.13947 1869 ft 4 kts 201°
2026-04-23 00:18 -23.33022 -51.13957 1869 ft 3 kts 194°
2026-04-23 00:18 -23.33038 -51.13953 1869 ft 2 kts 142°
2026-04-23 00:18 -23.33052 -51.13932 1869 ft 3 kts 114°
2026-04-23 00:18 -23.33058 -51.13916 1869 ft 0 kts 111°
2026-04-23 00:19 -23.33060 -51.13912 1869 ft 4 kts 111°
2026-04-23 00:19 -23.33145 -51.13645 1869 ft 81 kts 108°
2026-04-23 00:19 -23.33441 -51.12745 1838 ft 167 kts 110°
2026-04-23 00:19 -23.33891 -51.11379 2229 ft 197 kts 110°
2026-04-23 00:20 -23.34321 -51.10077 3127 ft 190 kts 108°
2026-04-23 00:20 -23.34303 -51.08608 3617 ft 206 kts 74°
2026-04-23 00:20 -23.33744 -51.07106 4138 ft 223 kts 65°
2026-04-23 00:20 -23.33036 -51.05538 4660 ft 241 kts 64°
2026-04-23 00:21 -23.32264 -51.03860 5184 ft 259 kts 64°
2026-04-23 00:21 -23.31443 -51.02056 5701 ft 275 kts 64°
2026-04-23 00:21 -23.30588 -51.00153 6203 ft 283 kts 65°
2026-04-23 00:21 -23.29733 -50.98226 6699 ft 286 kts 65°
2026-04-23 00:22 -23.28866 -50.96267 7200 ft 288 kts 65°
2026-04-23 00:22 -23.27993 -50.94294 7701 ft 291 kts 64°
2026-04-23 00:22 -23.27116 -50.92313 8198 ft 294 kts 64°
2026-04-23 00:22 -23.26228 -50.90305 8698 ft 297 kts 64°
2026-04-23 00:23 -23.25329 -50.88275 9199 ft 299 kts 63°
2026-04-23 00:23 -23.24419 -50.86218 9703 ft 301 kts 63°
2026-04-23 00:23 -23.23511 -50.84165 10202 ft 303 kts 63°
2026-04-23 00:23 -23.22600 -50.82105 10701 ft 305 kts 62°
2026-04-23 00:24 -23.21683 -50.80033 11199 ft 307 kts 62°
2026-04-23 00:24 -23.20764 -50.77958 11697 ft 308 kts 62°
2026-04-23 00:24 -23.19830 -50.75846 12201 ft 309 kts 62°
2026-04-23 00:24 -23.18895 -50.73735 12701 ft 312 kts 62°
2026-04-23 00:25 -23.17946 -50.71591 13206 ft 315 kts 62°
2026-04-23 00:25 -23.16992 -50.69437 13706 ft 319 kts 61°
2026-04-23 00:25 -23.16032 -50.67269 14206 ft 321 kts 61°
2026-04-23 00:25 -23.15063 -50.65081 14705 ft 324 kts 61°
2026-04-23 00:26 -23.14085 -50.62874 15205 ft 327 kts 61°
2026-04-23 00:26 -23.13094 -50.60635 15707 ft 330 kts 61°
2026-04-23 00:26 -23.12106 -50.58406 16202 ft 333 kts 61°
2026-04-23 00:26 -23.11100 -50.56135 16703 ft 336 kts 61°
2026-04-23 00:27 -23.10083 -50.53840 17204 ft 339 kts 60°
2026-04-23 00:27 -23.09047 -50.51504 17709 ft 343 kts 60°
2026-04-23 00:27 -23.08010 -50.49163 18211 ft 346 kts 60°
2026-04-23 00:27 -23.06974 -50.46826 18707 ft 349 kts 60°
2026-04-23 00:28 -23.05923 -50.44455 19206 ft 352 kts 60°
2026-04-23 00:28 -23.04858 -50.42053 19708 ft 355 kts 60°
2026-04-23 00:28 -23.03777 -50.39616 20211 ft 359 kts 60°
2026-04-23 00:28 -23.02701 -50.37190 20709 ft 361 kts 60°
2026-04-23 00:29 -23.01617 -50.34743 21208 ft 362 kts 60°
2026-04-23 00:29 -23.00530 -50.32293 21706 ft 363 kts 60°
2026-04-23 00:29 -22.99431 -50.29813 22210 ft 365 kts 60°
2026-04-23 00:29 -22.98331 -50.27334 22710 ft 367 kts 59°
2026-04-23 00:30 -22.97217 -50.24823 23214 ft 369 kts 59°
2026-04-23 00:30 -22.96109 -50.22326 23712 ft 372 kts 59°
2026-04-23 00:30 -22.94996 -50.19819 24209 ft 374 kts 59°
2026-04-23 00:30 -22.93856 -50.17248 24715 ft 376 kts 59°
2026-04-23 00:31 -22.92725 -50.14701 25214 ft 378 kts 59°
2026-04-23 00:31 -22.91584 -50.12131 25714 ft 381 kts 59°
2026-04-23 00:31 -22.90430 -50.09531 26216 ft 383 kts 59°
2026-04-23 00:31 -22.89281 -50.06943 26713 ft 385 kts 59°
2026-04-23 00:32 -22.88115 -50.04316 27214 ft 386 kts 60°
2026-04-23 00:32 -22.86962 -50.01718 27709 ft 385 kts 59°
2026-04-23 00:32 -22.85796 -49.99090 28210 ft 386 kts 59°
2026-04-23 00:32 -22.84649 -49.96504 28703 ft 386 kts 59°
2026-04-23 00:33 -22.83488 -49.93890 29203 ft 386 kts 59°
2026-04-23 00:33 -22.82314 -49.91246 29709 ft 385 kts 59°
2026-04-23 00:33 -22.81163 -49.88650 30207 ft 383 kts 59°
2026-04-23 00:33 -22.80023 -49.86081 30701 ft 381 kts 59°
2026-04-23 00:34 -22.78875 -49.83491 31203 ft 379 kts 59°
2026-04-23 00:34 -22.77737 -49.80924 31705 ft 375 kts 59°
2026-04-23 00:34 -22.76621 -49.78406 32201 ft 371 kts 59°
2026-04-23 00:34 -22.75522 -49.75926 32695 ft 367 kts 59°
2026-04-23 00:35 -22.74423 -49.73445 33195 ft 361 kts 59°
2026-04-23 00:35 -22.73358 -49.71039 33688 ft 354 kts 59°
2026-04-23 00:35 -22.72302 -49.68655 34186 ft 346 kts 59°
2026-04-23 00:35 -22.71287 -49.66360 34677 ft 337 kts 59°
2026-04-23 00:36 -22.70273 -49.64069 35024 ft 334 kts 59°
2026-04-23 00:36 -22.68211 -49.59437 35033 ft 349 kts 59°
2026-04-23 00:37 -22.66070 -49.54631 35022 ft 365 kts 60°
2026-04-23 00:37 -22.63804 -49.49544 35020 ft 382 kts 60°
2026-04-23 00:38 -22.61456 -49.44273 35019 ft 394 kts 60°
2026-04-23 00:38 -22.59088 -49.38949 35018 ft 392 kts 60°
2026-04-23 00:39 -22.56740 -49.33666 35020 ft 389 kts 60°
2026-04-23 00:39 -22.54397 -49.28400 35020 ft 390 kts 60°
2026-04-23 00:40 -22.52052 -49.23131 35020 ft 392 kts 60°
2026-04-23 00:40 -22.49690 -49.17824 35020 ft 391 kts 60°
2026-04-23 00:41 -22.47352 -49.12570 35020 ft 388 kts 60°
2026-04-23 00:41 -22.45013 -49.07315 35020 ft 386 kts 60°
2026-04-23 00:42 -22.42708 -49.02139 35020 ft 384 kts 61°
2026-04-23 00:42 -22.40399 -48.96955 35020 ft 382 kts 61°
2026-04-23 00:43 -22.38089 -48.91771 35019 ft 381 kts 61°
2026-04-23 00:43 -22.35807 -48.86647 35020 ft 381 kts 60°
2026-04-23 00:44 -22.33509 -48.81487 35020 ft 382 kts 60°
2026-04-23 00:44 -22.31216 -48.76337 35020 ft 382 kts 60°
2026-04-23 00:45 -22.28913 -48.71168 35020 ft 382 kts 60°
2026-04-23 00:45 -22.26618 -48.66017 35020 ft 382 kts 60°
2026-04-23 00:46 -22.24324 -48.60869 35020 ft 382 kts 60°
2026-04-23 00:46 -22.22031 -48.55725 35020 ft 382 kts 60°
2026-04-23 00:47 -22.19732 -48.50568 35020 ft 382 kts 61°
2026-04-23 00:47 -22.17433 -48.45415 35020 ft 382 kts 61°
2026-04-23 00:48 -22.15135 -48.40262 35020 ft 382 kts 61°
2026-04-23 00:48 -22.12837 -48.35110 35020 ft 382 kts 61°
2026-04-23 00:49 -22.10531 -48.29943 35020 ft 382 kts 61°
2026-04-23 00:49 -22.08231 -48.24791 35020 ft 382 kts 61°
2026-04-23 00:50 -22.05935 -48.19648 35020 ft 382 kts 61°
2026-04-23 00:50 -22.03635 -48.14499 35020 ft 382 kts 61°
2026-04-23 00:51 -22.01342 -48.09366 35020 ft 382 kts 61°
2026-04-23 00:51 -21.99050 -48.04235 35020 ft 382 kts 61°
2026-04-23 00:52 -21.96746 -47.99079 35020 ft 381 kts 61°
2026-04-23 00:52 -21.94457 -47.93958 35020 ft 381 kts 61°
2026-04-23 00:53 -21.92151 -47.88799 35019 ft 381 kts 60°
2026-04-23 00:53 -21.89860 -47.83670 35018 ft 381 kts 60°
2026-04-23 00:54 -21.87604 -47.78540 35021 ft 382 kts 62°
2026-04-23 00:54 -21.85506 -47.73301 35043 ft 383 kts 65°